This is the latest recevied weather packets stored in our database for station/object K0CVS. If no packets are shown the sender has not sent any weather packets the latest 1 day(s).
| Time | Temp. | Humidity | Pressure | Rain* | Wind** | Luminosity | Snow |
|---|---|---|---|---|---|---|---|
| 1777987606 | 8.89° C | 86% | 1012.3 hPa | 0 mm | 0 m/s | 8 W/m² | - |
| 1777987304 | 9.44° C | 84% | 1011.7 hPa | 0 mm | 0 m/s | 11 W/m² | - |
| 1777987001 | 9.44° C | 82% | 1011.7 hPa | 0 mm | 0 m/s | 18 W/m² | - |
| 1777986699 | 9.44° C | 80% | 1011.6 hPa | 0 mm | 0 m/s | 18 W/m² | - |
| 1777986397 | 9.44° C | 80% | 1012.6 hPa | 0 mm | 0 m/s | 8 W/m² | - |
| 1777986095 | 9.44° C | 80% | 1012.4 hPa | 0 mm | 0 m/s | 2 W/m² | - |
| 1777985791 | 9.44° C | 78% | 1010.8 hPa | 0 mm | 0 m/s | 4 W/m² | - |
| 1777985488 | 9.44° C | 77% | 1010.4 hPa | 0 mm | 0 m/s | 9 W/m² | - |
| 1777985185 | 9.44° C | 77% | 1010.4 hPa | 0 mm | 0 m/s | 18 W/m² | - |
| 1777984881 | 9.44° C | 77% | 1010.2 hPa | 1.78 mm | 0 m/s | 21 W/m² | - |
| 1777984586 | 9.44° C | 80% | 1010.1 hPa | 1.78 mm | 0.45 m/s, 246° | 23 W/m² | - |
| 1777984274 | 9.44° C | 80% | 1009.9 hPa | 0 mm | 0 m/s | 23 W/m² | - |
| 1777983971 | 9.44° C | 78% | 1010.3 hPa | 0 mm | 0 m/s | 26 W/m² | - |
| 1777983668 | 9.44° C | 78% | 1010.1 hPa | 0 mm | 0 m/s | 13 W/m² | - |
| 1777983364 | 9.44° C | 80% | 1009.9 hPa | 0 mm | 0 m/s | 5 W/m² | - |
| 1777983061 | 9.44° C | 80% | 1010.3 hPa | 0 mm | 0 m/s | 2 W/m² | - |
| 1777982757 | 8.89° C | 79% | 1009.8 hPa | 0 mm | 0 m/s | 5 W/m² | - |
| 1777982453 | 9.44° C | 82% | 1009.8 hPa | 0 mm | 0 m/s | 4 W/m² | - |
| 1777982148 | 9.44° C | 80% | 1009.8 hPa | 0 mm | 0 m/s | 5 W/m² | - |
| 1777981846 | 8.89° C | 80% | 1009.6 hPa | 0 mm | 0 m/s | 4 W/m² | - |
| 1777981542 | 9.44° C | 83% | 1009.6 hPa | 0 mm | 0 m/s | 2 W/m² | - |
| 1777981239 | 9.44° C | 81% | 1009.7 hPa | 0 mm | 0 m/s | 2 W/m² | - |
| 1777980935 | 9.44° C | 77% | 1009.7 hPa | 0 mm | 0.45 m/s, 193° | 2 W/m² | - |
| 1777980632 | 9.44° C | 79% | 1009.7 hPa | 0 mm | 0 m/s | 1 W/m² | - |
| 1777980328 | 10° C | 76% | 1009.7 hPa | 0 mm | 0 m/s | 0 W/m² | - |
* Rain latest hour (hover to see other rain measurements)
** Current wind speed in m/s (hover to see current wind gust speed)